Retour au catalogue

STARLINK-4152

ActifCommunicationsVLEO
NORAD 53136·PAYLOAD·🇺🇸 United States

Lancé Jul 17, 2022 depuis Cape Canaveral Space Force Station

Loading…

Prochains Passages (prochaines 24 heures)

TLE

FraisSource: CelesTrak SupGP

Époque: Sep 15, 2026, 02:56 UTC

1 53136C 22083E   26258.12270833 -.00005554  00000+0 -15891-3 0  2587
2 53136  53.1599  30.8019 0001127  82.2981  95.0430 15.35397770    13

Suivez STARLINK-4152 en temps réel avec AllMySat

Download on the App Store